Weather History for Coldwater, MI

Change the Weather History Date:

Tuesday, April 9, 2013

  Actual Average (KJYM) Record (KJYM)
Temperature  
Mean Temperature 52 °F -  
Max Temperature 67 °F 52 °F 74 °F (1967)
Min Temperature 38 °F 30 °F 13 °F (1957)
Degree Days  
Heating Degree Days 12    
Growing Degree Days 2 (Base 50)    
Moisture  
Dew Point 44 °F    
Average Humidity 77    
Maximum Humidity 95    
Minimum Humidity 55    
Precipitation  
Precipitation 0.00 in - - ()
Sea Level Pressure  
Sea Level Pressure 29.95 in    
Wind  
Wind Speed 4 mph (ESE)    
Max Wind Speed 15 mph    
Max Gust Speed 20 mph    
Visibility 7 miles    
Events Rain    
Averages and records for this station are not official NWS values.
T = Trace of Precipitation, MM = Missing Value Source: NWS Daily Summary

Daily Weather History Graph

Daily Weather History Graph

Search for Another Location

Airport:

Trip Planner

Search our weather history database for the weather conditions in past years. The results will help you decide how hot, cold, wet, or windy it might be!

Date:

Astronomy

Apr. 09, 2013 Rise Set
Actual Time 7:09 AM EDT 8:14 PM EDT
Civil Twilight 6:40 AM EDT 8:43 PM EDT
Nautical Twilight 6:06 AM EDT 9:17 PM EDT
Astronomical Twilight 5:30 AM EDT 9:53 PM EDT
Moon 6:31 AM EDT (4/9) 7:49 PM EDT (4/9)
Length of Visible Light 14h 02m
Length of Day
13h 05m
Waning Crescent, 1% of the Moon is Illuminated
Apr 9
Waning Crescent
Apr 10
New
Apr 18
First Quarter
Apr 25
Full
May 2
Last Quarter

Hourly Weather History & Observations

Time (EDT) Temp. Windchill Dew Point Humidity Pressure Visibility Wind Dir Wind Speed Gust Speed Precip Events Conditions
12:14 AM 40.3 °F - 37.4 °F 89% 29.99 in 5.0 mi Calm Calm - N/A   Clear
12:34 AM 38.8 °F - 36.3 °F 91% 29.99 in 4.0 mi Calm Calm - N/A   Clear
12:55 AM 40.1 °F - 37.9 °F 92% 30.00 in 5.0 mi Calm Calm - N/A   Mostly Cloudy
1:14 AM 39.6 °F - 37.4 °F 92% 30.01 in 5.0 mi Calm Calm - N/A   Mostly Cloudy
1:34 AM 40.1 °F - 37.9 °F 92% 30.02 in 4.0 mi Calm Calm - N/A   Overcast
2:14 AM 39.7 °F - 37.8 °F 93% 30.02 in 4.0 mi Calm Calm - N/A   Scattered Clouds
2:34 AM 39.4 °F - 37.6 °F 93% 30.02 in 4.0 mi Calm Calm - N/A   Scattered Clouds
2:54 AM 39.2 °F - 37.4 °F 93% 30.01 in 4.0 mi Calm Calm - N/A   Scattered Clouds
3:14 AM 38.5 °F - 36.7 °F 93% 30.01 in 4.0 mi Calm Calm - N/A   Mostly Cloudy
3:34 AM 40.5 °F - 38.8 °F 94% 30.02 in 4.0 mi Calm Calm - N/A   Overcast
3:54 AM 39.6 °F 34.7 °F 37.8 °F 93% 30.01 in 3.0 mi NE 6.9 mph - N/A   Mostly Cloudy
4:14 AM 39.4 °F 36.1 °F 37.8 °F 94% 30.02 in 2.5 mi East 4.6 mph - N/A   Mostly Cloudy
4:34 AM 39.7 °F 35.6 °F 38.3 °F 95% 30.02 in 1.5 mi ENE 5.8 mph - N/A   Overcast
4:54 AM 39.7 °F 37.6 °F 38.3 °F 95% 30.02 in 1.8 mi East 3.5 mph - N/A   Overcast
5:14 AM 39.6 °F 36.3 °F 38.3 °F 95% 30.02 in 2.0 mi East 4.6 mph - N/A   Overcast
5:34 AM 40.1 °F 36.9 °F 38.5 °F 94% 30.02 in 2.5 mi East 4.6 mph - N/A   Overcast
5:54 AM 40.1 °F 36.9 °F 38.5 °F 94% 30.03 in 2.5 mi East 4.6 mph - N/A   Overcast
6:14 AM 40.5 °F 37.3 °F 39.2 °F 95% 30.03 in 3.0 mi East 4.6 mph - N/A   Overcast
6:34 AM 40.6 °F 36.0 °F 39.2 °F 95% 30.04 in 4.0 mi East 6.9 mph - N/A   Overcast
6:54 AM 41.0 °F 37.1 °F 39.0 °F 93% 30.02 in 5.0 mi East 5.8 mph - N/A   Overcast
7:14 AM 41.4 °F 38.4 °F 39.2 °F 92% 30.02 in 5.0 mi East 4.6 mph - N/A   Overcast
7:34 AM 42.1 °F 38.4 °F 39.4 °F 90% 30.03 in 5.0 mi ESE 5.8 mph - N/A   Overcast
7:54 AM 43.0 °F 39.5 °F 39.9 °F 89% 30.03 in 5.0 mi East 5.8 mph - N/A   Overcast
8:14 AM 44.2 °F 39.2 °F 40.5 °F 87% 30.03 in 5.0 mi SE 9.2 mph - N/A   Overcast
8:34 AM 45.1 °F 40.8 °F 41.0 °F 85% 30.03 in 7.0 mi East 8.1 mph - N/A   Overcast
8:54 AM 45.5 °F 41.3 °F 41.0 °F 84% 30.01 in 7.0 mi ESE 8.1 mph - N/A   Scattered Clouds
9:15 AM 46.8 °F - 41.9 °F 83% 30.02 in 7.0 mi ESE 8.1 mph - N/A   Mostly Cloudy
9:34 AM 46.8 °F - 41.5 °F 82% 30.02 in 7.0 mi ESE 9.2 mph 16.1 mph N/A   Overcast
9:54 AM 47.7 °F - 42.6 °F 83% 30.00 in 7.0 mi ESE 10.4 mph - N/A   Overcast
10:14 AM 49.1 °F - 42.8 °F 79% 30.00 in 7.0 mi SE 10.4 mph 17.3 mph N/A   Overcast
10:34 AM 49.5 °F - 42.8 °F 78% 30.00 in 7.0 mi SE 8.1 mph 18.4 mph N/A   Overcast
10:55 AM 50.4 °F - 43.0 °F 76% 30.00 in 7.0 mi SE 6.9 mph 17.3 mph N/A   Mostly Cloudy
11:14 AM 51.8 °F - 43.0 °F 72% 30.00 in 10.0 mi ESE 9.2 mph - N/A   Overcast
11:34 AM 51.8 °F - 42.8 °F 71% 29.98 in 7.0 mi ESE 12.7 mph - N/A   Overcast
11:55 AM 52.5 °F - 43.5 °F 71% 29.97 in 10.0 mi ESE 10.4 mph 16.1 mph N/A   Overcast
12:14 PM 55.4 °F - 44.2 °F 66% 29.96 in 10.0 mi SE 15.0 mph 19.6 mph N/A   Overcast
12:34 PM 56.1 °F - 44.8 °F 66% 29.96 in 10.0 mi SE 11.5 mph 17.3 mph N/A   Overcast
12:54 PM 57.7 °F - 45.7 °F 64% 29.94 in 10.0 mi SE 11.5 mph - N/A   Overcast
1:14 PM 57.9 °F - 45.7 °F 64% 29.92 in 10.0 mi SE 8.1 mph - N/A   Overcast
1:34 PM 60.8 °F - 47.1 °F 61% 29.91 in 10.0 mi SE 10.4 mph - N/A   Overcast
1:54 PM 61.2 °F - 47.5 °F 61% 29.90 in 10.0 mi SE 9.2 mph - N/A   Overcast
2:14 PM 61.9 °F - 47.5 °F 59% 29.90 in 10.0 mi SSE 8.1 mph - N/A   Overcast
2:34 PM 62.6 °F - 48.4 °F 60% 29.89 in 10.0 mi SSE 6.9 mph - N/A   Overcast
2:54 PM 64.8 °F - 49.1 °F 57% 29.88 in 10.0 mi SSE 13.8 mph 19.6 mph N/A   Mostly Cloudy
3:14 PM 66.2 °F - 49.6 °F 55% 29.88 in 10.0 mi SSE 9.2 mph 17.3 mph N/A   Mostly Cloudy
3:34 PM 66.7 °F - 50.2 °F 55% 29.87 in 10.0 mi SSE 4.6 mph - N/A   Overcast
3:54 PM 66.2 °F - 50.5 °F 57% 29.86 in 10.0 mi Calm Calm - N/A   Overcast
4:14 PM 66.0 °F - 51.3 °F 59% 29.86 in 10.0 mi Calm Calm - N/A   Overcast
4:34 PM 66.2 °F - 51.1 °F 58% 29.85 in 10.0 mi SE 3.5 mph - N/A   Overcast
4:54 PM 65.8 °F - 51.3 °F 59% 29.84 in 10.0 mi ESE 4.6 mph - N/A   Overcast
5:14 PM 65.7 °F - 50.9 °F 59% 29.84 in 10.0 mi ESE 3.5 mph - N/A   Overcast
5:35 PM 63.7 °F - 52.7 °F 67% 29.84 in 10.0 mi Calm Calm - N/A Rain Light Rain
5:54 PM 63.1 °F - 52.9 °F 69% 29.85 in 10.0 mi Calm Calm - N/A   Overcast
6:14 PM 62.8 °F - 54.1 °F 73% 29.85 in 10.0 mi Calm Calm - N/A   Overcast
6:34 PM 63.1 °F - 52.7 °F 69% 29.86 in 10.0 mi Calm Calm - N/A   Overcast
6:54 PM 63.5 °F - 52.2 °F 67% 29.85 in 10.0 mi SE 4.6 mph - N/A   Overcast
7:14 PM 63.5 °F - 51.4 °F 65% 29.85 in 10.0 mi SE 4.6 mph - N/A   Overcast
7:34 PM 63.1 °F - 51.4 °F 66% 29.85 in 10.0 mi SE 5.8 mph - N/A   Overcast
7:54 PM 62.6 °F - 51.8 °F 68% 29.85 in 10.0 mi SSE 4.6 mph - N/A   Overcast
8:14 PM 64.0 °F - 52.9 °F 67% 29.85 in 10.0 mi SSW 4.6 mph - N/A   Overcast
8:34 PM 65.8 °F - 54.0 °F 65% 29.85 in 10.0 mi WSW 4.6 mph - N/A   Overcast
8:54 PM 67.1 °F - 54.0 °F 63% 29.86 in 10.0 mi SW 5.8 mph - N/A   Overcast
9:14 PM 62.6 °F - 51.4 °F 67% 29.88 in 10.0 mi North 12.7 mph - N/A   Overcast
9:34 PM 58.5 °F - 49.3 °F 72% 29.90 in 10.0 mi North 15.0 mph 18.4 mph N/A   Overcast
9:54 PM 53.4 °F - 47.5 °F 80% 29.92 in 7.0 mi NNE 12.7 mph 16.1 mph N/A   Overcast
10:14 PM 51.6 °F - 46.4 °F 82% 29.93 in 5.0 mi NNE 11.5 mph - N/A   Haze
10:54 PM 50.2 °F - 45.3 °F 83% 29.93 in 5.0 mi NE 11.5 mph - N/A   Haze
11:14 PM 50.0 °F - 45.3 °F 84% 29.94 in 4.0 mi NE 10.4 mph - N/A   Haze
11:34 PM 49.3 °F - 45.0 °F 85% 29.93 in 4.0 mi NE 12.7 mph - N/A   Overcast
11:54 PM 49.1 °F - 44.6 °F 84% 29.94 in 5.0 mi NE 10.4 mph - N/A   Overcast